Home > Weather > Tallahassee > Past weeks

Flag for U.S.A. Weather for the Past 2 Weeks in Tallahassee, Florida, U.S.A.

Now
39 °F

Clear.


Feels Like: 35 °F
Forecast: 37 / 52 °F
Wind: 6 mph from West

Location: Tallahassee Regional Airport

Current Time: Feb 9, 2016 at 5:12:30 AM

Latest Report: Feb 9, 2016 at 3:53 AM


Visibility: 10 mi

Pressure: 29.96 "Hg

Humidity: 50%

Dew point: 22 °F

Location of TallahasseeLocation

Historic Weather in Tallahassee — Graph

°F

Tallahassee Temperature Yesterday

Maximum temperature yesterday: 67 °F (at 1:53 PM)
Minimum temperature yesterday: 29 °F (at 6:53 AM)
Average temperature yesterday: 49 °F

High & Low Weather Summary for the Past Weeks

 TemperatureHumidityPressure
High79 °F (Feb 1, 3:53 PM)97% (Feb 2, 4:53 AM)30.40 "Hg (Feb 2, 4:53 AM)
Low28 °F (Jan 25, 4:53 AM)19% (Feb 5, 2:53 PM)29.78 "Hg (Feb 8, 4:53 PM)
Average54 °F69%30.08 "Hg
* Reported Jan 25 3:53 AM — Feb 9 3:53 AM, Tallahassee, Weather by CustomWeather, © 2016

Note: Actual official high and low records may vary slightly from our data, if they occured in-between our weather recording intervals... More about our weather records

Advertising

Tallahassee Weather History for the Previous 24 Hours

 ConditionsComfort  
Time TempWeatherWind HumidityBarometerVisibility
3:53 AM
Tue, Feb 9
39 °FClear.6 mph50%29.96 "Hg10 mi
2:53 AM44 °FClear.12 mph40%29.98 "Hg10 mi
1:53 AM46 °FClear.13 mph37%29.98 "Hg10 mi
12:53 AM48 °FClear.13 mph37%29.96 "Hg10 mi
11:53 PM
Mon, Feb 8
50 °FClear.18 mph33%29.94 "Hg10 mi
10:53 PM53 °FPassing clouds.15 mph28%29.92 "Hg10 mi
9:53 PM53 °FOvercast.13 mph34%29.89 "Hg10 mi
8:53 PM55 °FPassing clouds.15 mph34%29.87 "Hg10 mi
7:53 PM57 °FMostly cloudy.12 mph42%29.84 "Hg10 mi
6:53 PM58 °FLight rain. Passing clouds.17 mph47%29.81 "Hg10 mi
5:53 PM61 °FPassing clouds.24 mph36%29.78 "Hg10 mi
4:53 PM64 °FBroken clouds.18 mph38%29.78 "Hg10 mi
3:53 PM64 °FBroken clouds.23 mph43%29.78 "Hg10 mi
2:53 PM67 °FScattered clouds.20 mph33%29.81 "Hg10 mi
1:53 PM67 °FPassing clouds.24 mph31%29.83 "Hg10 mi
12:53 PM65 °FPassing clouds.20 mph33%29.90 "Hg10 mi
11:53 AM63 °FPassing clouds.15 mph35%29.96 "Hg10 mi
10:53 AM59 °FPassing clouds.15 mph39%30.01 "Hg10 mi
9:53 AM52 °FPassing clouds.9 mph55%30.02 "Hg10 mi
8:53 AM42 °FPassing clouds.3 mph76%30.03 "Hg10 mi
7:53 AM30 °FPassing clouds.No wind89%30.02 "Hg10 mi
6:53 AM29 °FPassing clouds.No wind85%30.03 "Hg10 mi
5:53 AM31 °FClear.No wind82%30.03 "Hg10 mi
Weather by CustomWeather, © 2016

See weather overviewHow to use our weather pages